Printer-friendly version
Follow the MPC on Twitter Follow the MPC on Facebook The MPC blog
Minor Planet Center

MPEC 2010-O29 : 2010 OE22

The following Minor Planet Electronic Circular may be linked-to from your own Web pages, but must not otherwise be redistributed electronically.

A form allowing access to any MPEC is at the bottom of this page.


Read MPEC 2010-O28 Read MPEC 2010-O30


M.P.E.C. 2010-O29                                Issued 2010 July 24, 17:52 UT

     The Minor Planet Electronic Circulars contain information on unusual
         minor planets and routine data on comets.  They are published
   on behalf of Commission 20 of the International Astronomical Union by the
          Minor Planet Center, Smithsonian Astrophysical Observatory,
                          Cambridge, MA 02138, U.S.A.

             Prepared using the Tamkin Foundation Computer Network

                              MPC@CFA.HARVARD.EDU
       URL http://www.minorplanetcenter.org/iau/mpc.html  ISSN 1523-6714

                                   2010 OE22

Observations:
     K10O22E* S2010 07 17.32906 16 00 52.75 +51 58 04.9          21   R EO029C51
     K10O22E  s2010 07 17.32906 1 - 3625.3222 -  641.6712 + 5834.7534   EO029C51
     K10O22E  S2010 07 17.39527 16 01 32.49 +51 56 03.0                 EO029C51
     K10O22E  s2010 07 17.39527 1 - 3592.5341 -  629.8993 + 5856.3062   EO029C51
     K10O22E  S2010 07 17.46136 16 02 12.31 +51 53 59.4                 EO029C51
     K10O22E  s2010 07 17.46136 1 - 3624.1840 -  650.4528 + 5834.7148   EO029C51
     K10O22E  S2010 07 17.52757 16 02 51.98 +51 51 54.0                 EO029C51
     K10O22E  s2010 07 17.52757 1 - 3592.2168 -  638.7825 + 5855.7792   EO029C51
     K10O22E  S2010 07 17.72597 16 04 50.99 +51 45 33.2                 EO029C51
     K10O22E  s2010 07 17.72597 1 - 3622.4079 -  667.1965 + 5833.7270   EO029C51
     K10O22E  S2010 07 17.79218 16 05 30.62 +51 43 23.7                 EO029C51
     K10O22E  s2010 07 17.79218 1 - 3589.4471 -  654.9385 + 5855.3510   EO029C51
     K10O22E KC2010 07 23.11304 16 56 50.53 +47 55 59.7                 EO029H21
     K10O22E KC2010 07 23.11674 16 56 52.53 +47 55 48.2          21.2 V EO029H21
     K10O22E KC2010 07 23.12054 16 56 54.56 +47 55 36.1          21.0 V EO029H21
     K10O22E KC2010 07 23.14163 16 57 05.84 +47 54 28.9          21.1 V EO029H21
     K10O22E KC2010 07 23.14535 16 57 07.84 +47 54 17.1          21.2 V EO029H21
     K10O22E KC2010 07 23.14931 16 57 09.98 +47 54 04.2          21.2 V EO029H21
     K10O22E KC2010 07 24.12789 17 06 03.94 +47 00 45.4          20.8 V EO029H21
     K10O22E KC2010 07 24.14486 17 06 12.82 +46 59 47.5          20.8 V EO029H21
     K10O22E KC2010 07 24.16132 17 06 21.42 +46 58 51.3          20.6 V EO029H21
     K10O22E KC2010 07 24.17702 17 06 29.54 +46 57 57.3          20.8 V EO029H21

Observer details:
C51 WISE.  Measurers A. Mainzer, E. Wright, J. Bauer, T. Grav, J. Dailey, J.
    Masiero, R. Cutri, R. McMillan, R. Walker.
    (http://wise.ssl.berkeley.edu/mission_sci.html)
H21 Astronomical Research Observatory, Westfield.  Observer R. Holmes.
    Measurer H. Devore.  0.81-m f/4.0 astrograph + CCD.

Orbital elements:
2010 OE22                                                Earth MOID = 0.1772 AU
Epoch 2010 July 23.0 TT = JDT 2455400.5                 MPC
M   8.47276              (2000.0)            P               Q
n   0.25627280     Peri.   79.18302     -0.24271704     +0.96999762
a   2.4547148      Node   176.67212     -0.95703070     -0.23708049
e   0.5964063      Incl.   13.84805     -0.15868419     -0.05382797
P   3.85           H   21.5           G   0.15           U   9
Residuals in seconds of arc
100717 C51  0.1-  1.1-    100723 H21  0.3-  0.1-    100724 H21  0.0   0.7+
100717 C51  0.3-  0.3+    100723 H21  0.1-  0.1+    100724 H21  0.3+  0.2+
100717 C51  0.7+  0.4+    100723 H21  0.1-  0.0     100724 H21  0.4+  0.1+
100717 C51  0.1+  0.3+    100723 H21  0.0   0.2-    100724 H21  0.4-  0.3-
100717 C51  0.0   0.3+    100723 H21  0.1+  0.2-
100717 C51  0.3-  0.2+    100723 H21  0.3+  0.4-

Ephemeris:
2010 OE22                a,e,i = 2.45, 0.60, 14                  q = 0.9907
Date    TT    R. A. (2000) Decl.     Delta      r     Elong.  Phase     V
2010 07 23    16 55.79   +48 01.9    0.243    1.082    99.4    67.9    21.0
2010 08 02    18 15.90   +36 52.1    0.246    1.139   114.6    54.1    20.7
2010 08 12    19 11.84   +23 28.9    0.273    1.205   129.4    40.5    20.7
2010 08 22    19 50.65   +11 32.1    0.326    1.277   139.6    30.9    20.9
2010 09 01    20 19.16   +02 32.3    0.403    1.354   143.3    26.5    21.4
2010 09 11    20 41.80   -03 41.5    0.501    1.434   141.6    25.9    22.0
2010 09 21    21 01.20   -07 47.4    0.617    1.514   136.9    26.9    22.6
2010 10 01    21 18.75   -10 21.4    0.748    1.596   131.1    28.2    23.1

Carl W. Hergenrother         (C) Copyright 2010 MPC           M.P.E.C. 2010-O29

Read MPEC 2010-O28 Read MPEC 2010-O30


MPEC number:

Enter an MPEC number in one of the following forms:

  • 1997-B01 (the full form)
  • J97B01 (the packed version of the full form)
  • B01 (the abbreviated form)

Valid HTML 4.01!